THOR ABLESTAR DEB, 465

Orbit data source: Space-Track

THOR ABLESTAR DEB, 465 is space debris in LEO originally from a launch on Thu, 29 Jun 1961 UTC launched from the Air Force Eastern Test Range (AFETR). Debris objects in space refer to the collection of defunct objects orbiting the Earth. Examples of debris include non-operational satellites, rocket bodies, and fragments generated from explosions, collisions, or faulty payload assembly.

Loading next visibility...
Identifier
465, 1961-015FB
Orbit
LEO
Country
Flag of USUS
Related business
Manufacturer
Unknown
Mission
Spacecraft
Bus & Motor
Unknown
Mass
Unknown
Launch date (UTC)
1961-06-29 (64 years ago)
Launch vehicle
Unknown
Launch site
Air Force Eastern Test Range (AFETR)
Object type
Payload
Rocket body
Debris
Shape & HBR
Unknown
Radar Cross Section
Small (<0.1 m²)

Expand to show TLE details & history
Last TLE update: 2 days ago

TLE from 2 days ago
0 THOR ABLESTAR DEB
1 00465U 61015FB  25260.02591428  .00001759  00000-0  58981-3 0  9990
2 00465  66.3161 273.5372 0026263 142.6046 217.6888 14.39498479306761
Epoch: 2025-09-17T00:37Z
TLE epoch observation values (Epoch: 2025-09-17T00:37:18.993Z)
Latitude
-0.00005°
Longitude
-91.99974°
Altitude
777.098 km
Speed
7.458 km/s
True Right ascension
18h 14m 08s
True Declination
0° 00' 00"
Sunlit
Object was in daylight at epoch
Visualization orbit readout
Latitude
Unknown
Longitude
Unknown
Altitude
Unknown
Speed
Unknown
Apparent Right ascension
Unknown
Apparent Declination
Unknown
Sunlit
N/A
Visualization observer readout
Local Sidereal Time
17:29:49
Azimuth
Unknown
Elevation
Unknown
Doppler factor
Unknown
Orbital elements
Apogee altitude
777.312 km
Perigee altitude
739.826 km
Semi-major axis
7,136.706 km
Eccentricity
0.00263
Inclination
66.3161°
RAAN
273.5372°
Arg. of periapsis
142.6046°
True anomaly
217.50528°
Mean anomaly
217.6888°
Eccentric anomaly
217.59699°
Mean motion
3.59995 °/min
Orbital period
100 mins
BSTAR
0.00058981
Loading maneuver chart data...
Computing Atmospheric mass density...

Documentation

Showing up to 5 results
|